CZ-6A DEB

Satellite information

Favourite Embed

Satellite Type and Status

DEBRISIN ORBIT

Key statistics

Satellite CZ-6A DEB at a glance.

Uptime

1029

Days in orbit

Revolutions

≈ 14.2

Per day

Orbit

SSO

Sun Synchronous Orbit

Inclination

98.8

Latest

Satellite identification and parameters

Extended collection of information and parameters for CZ-6A DEB.

Object identification

Identified? True

Debris? True

Object name: CZ-6A DEB

International designator: 2022-151AFJ

Object number (NORAD): 56634

Object ID (CCSDS): 56634

Country: PEOPLES REPUBLIC OF CHINA (PRC)

Current information (Y/N): Y

RCS size: SMALL

Orbital parameters

Period: 101.302 minutes

Inclination: 98.8027 deg

SMA: 7198.471 km

Apoapsis: 829.848 km

Periapsis: 810.824 km

RAAN: 266.5539 deg

Eccentricy: 0.00132142

Argument of periapsis: 132.0375 deg

Mean anomaly: 228.1929 deg

Mean motion: 14.21485389 rev/day

Mean motion (dot): 0.00000439 rev/day2

B* drag term: 0.00022061966 1/REarth

Two-line elements (TLE)

Creation date: Sept. 4, 2025, 10:13 a.m.

Reference frame: TEME

Reference center: EARTH

Epoch: Sept. 4, 2025, 12:09 a.m. UTC

TLE line 0: 0 CZ-6A DEB

TLE line 1: 1 56634U 22151AFJ 25247.00656221 .00000439 00000-0 22062-3 0 9998

TLE line 2: 2 56634 98.8027 266.5539 0013214 132.0375 228.1929 14.21485389122966

Live tracking on map

Real-time ground track for satellite CZ-6A DEB.

In-orbit conjunctions

A list of the most updated potential collisions computed for object CZ-6A DEB.

Target Orbit TCA Probability of collision Miss distance Type
CZ-6A DEB LEO 2025-04-26 20:29:09 0.0001167319 110.0 (m) DEBRIS
CZ-6A DEB LEO 2025-04-26 08:31:22 0.0001327676 50.0 (m) DEBRIS
FENGYUN 1C DEB SSO 2025-02-20 13:05:53 0.0001883308 199.0 (m) DEBRIS
FENGYUN 1C DEB SSO 2024-09-26 15:00:46 0.0002449467 778.0 (m) DEBRIS

Associated space launch

Chinese satellite reported for atmospheric/ocean/environmental/spatial parameter research purposes, details TBD.

CZ-6A DEB was lifted into orbit during the mission ‘Long March 6A | Yunhai 3’, on board a Long March 6A space rocket.

The launch took place on Nov. 11, 2022, 10:52 p.m. from Launch Complex 9A.

For more information about the launch, click the button.

Launch to space Long March 6A | Yunhai 3
Long March 6A | Yunhai 3

Agency: N/A

Status: Launch Successful

Launch date: Nov. 11, 2022, 10:52 p.m. UTC

Rocket: Long March 6A

Launch pad: Launch Complex 9A

Location: Taiyuan Satellite Launch Center, People's Republic of China

...

Latest news about this satellite

There are no fresh news available about this satellite. Check back as we update our databases every day.


Newsletter sign-up

Weekly statistics, charts and insights to help you stay on top of the space industry.